Location: Moy Burn
(57.3833°N, 4.0667°W)
Time: 11:56:56
(UTC+00:00)

SL-4 R/B - Pass Details

Date: 08 August 2020
Orbit: 428 x 665 km, 51.6° (Epoch: 21 September)

Event Time Altitude Azimuth Distance (km) Brightness Sun altitude
Rises 22:20:55 0° 231° (SW) 2,608 5.4 -12.6°
Reaches altitude 10° 22:23:26 10° 218° (SW) 1,681 4.3 -12.8°
Maximum altitude 22:26:33 25° 162° (SSE) 1,000 2.7 -13.0°
Enters shadow 22:27:14 23° 144° (SE) 1,035 2.8 -13.1°
